ABR829 PANC-GMMN

Flight info

Callsign ABR829
Flight time N/A
Altitude 29000
Route TED J511 GKN J124 ORT DCT YVQ/N0496F310 DCT BODRA/N0500F330 DCT TEFFO DCT IKMAN/M085F330 DCT MAXAR DCT 59N050W/M085F350 55N040W 50N030W 45N020W DCT ERPES/N0489F350 DCT BEXAL DCT IBALU UA411 LAKAM
Aircraft B742/H-SDE3FGHIM1M2RWXY/LB1

Departure

Time 2026-05-06 07:05
Airport Ted Stevens Anchorage International Airport (PANC)

Arrival

Time N/A
Airport Mohammed V International Airport (GMMN)
Time Latitude Longitude Altitude Speed Heading
2026-05-06 06:29 61.19500 -150.00517 160 ft 0 kts 161°
2026-05-06 06:44 61.19505 -150.00522 160 ft 2 kts 161°
2026-05-06 06:44 61.19520 -150.00532 160 ft 2 kts 161°
2026-05-06 06:45 61.19534 -150.00542 160 ft 2 kts 161°
2026-05-06 06:45 61.19548 -150.00552 160 ft 2 kts 169°
2026-05-06 06:45 61.19563 -150.00549 160 ft 2 kts 200°
2026-05-06 06:45 61.19576 -150.00532 160 ft 2 kts 229°
2026-05-06 06:46 61.19583 -150.00505 160 ft 2 kts 256°
2026-05-06 06:46 61.19585 -150.00475 160 ft 2 kts 263°
2026-05-06 06:46 61.19587 -150.00450 160 ft 0 kts 262°
2026-05-06 06:46 61.19587 -150.00447 160 ft 0 kts 261°
2026-05-06 06:50 61.19586 -150.00456 160 ft 1 kts 261°
2026-05-06 06:50 61.19583 -150.00503 160 ft 5 kts 263°
2026-05-06 06:51 61.19577 -150.00607 160 ft 9 kts 262°
2026-05-06 06:51 61.19562 -150.00742 160 ft 9 kts 254°
2026-05-06 06:51 61.19539 -150.00853 160 ft 7 kts 218°
2026-05-06 06:51 61.19490 -150.00850 160 ft 7 kts 161°
2026-05-06 06:52 61.19478 -150.00841 160 ft 8 kts 161°
2026-05-06 06:52 61.19460 -150.00829 160 ft 9 kts 162°
2026-05-06 06:52 61.19385 -150.00786 160 ft 13 kts 165°
2026-05-06 06:52 61.19283 -150.00728 160 ft 17 kts 165°
2026-05-06 06:53 61.19156 -150.00656 160 ft 19 kts 164°
2026-05-06 06:53 61.19024 -150.00574 160 ft 20 kts 163°
2026-05-06 06:53 61.18883 -150.00494 160 ft 21 kts 165°
2026-05-06 06:53 61.18743 -150.00415 160 ft 20 kts 165°
2026-05-06 06:54 61.18602 -150.00333 160 ft 21 kts 164°
2026-05-06 06:54 61.18457 -150.00250 160 ft 21 kts 165°
2026-05-06 06:54 61.18315 -150.00169 160 ft 21 kts 165°
2026-05-06 06:54 61.18174 -150.00092 160 ft 20 kts 165°
2026-05-06 06:55 61.18037 -150.00009 160 ft 19 kts 163°
2026-05-06 06:55 61.17913 -149.99934 160 ft 18 kts 164°
2026-05-06 06:55 61.17798 -149.99870 160 ft 16 kts 165°
2026-05-06 06:55 61.17692 -149.99808 160 ft 16 kts 164°
2026-05-06 06:56 61.17583 -149.99745 160 ft 16 kts 164°
2026-05-06 06:56 61.17475 -149.99683 160 ft 16 kts 165°
2026-05-06 06:56 61.17368 -149.99623 160 ft 15 kts 165°
2026-05-06 06:56 61.17264 -149.99564 160 ft 15 kts 164°
2026-05-06 06:57 61.17166 -149.99506 160 ft 13 kts 162°
2026-05-06 06:57 61.17123 -149.99371 160 ft 11 kts 92°
2026-05-06 06:57 61.17124 -149.99216 160 ft 10 kts 89°
2026-05-06 06:57 61.17126 -149.99054 160 ft 11 kts 90°
2026-05-06 06:58 61.17125 -149.98886 160 ft 11 kts 91°
2026-05-06 06:58 61.17122 -149.98712 160 ft 12 kts 92°
2026-05-06 06:58 61.17119 -149.98529 160 ft 12 kts 92°
2026-05-06 06:58 61.17115 -149.98354 160 ft 12 kts 92°
2026-05-06 06:59 61.17113 -149.98180 160 ft 11 kts 91°
2026-05-06 06:59 61.17114 -149.98012 160 ft 11 kts 87°
2026-05-06 06:59 61.17117 -149.97852 160 ft 11 kts 88°
2026-05-06 06:59 61.17119 -149.97653 160 ft 15 kts 88°
2026-05-06 07:00 61.17122 -149.97389 160 ft 20 kts 89°
2026-05-06 07:00 61.17125 -149.97098 160 ft 19 kts 89°
2026-05-06 07:00 61.17122 -149.96881 160 ft 10 kts 108°
2026-05-06 07:00 61.17069 -149.96809 160 ft 9 kts 178°
2026-05-06 07:01 61.17004 -149.96808 160 ft 10 kts 180°
2026-05-06 07:01 61.16932 -149.96834 160 ft 9 kts 214°
2026-05-06 07:01 61.16899 -149.96947 160 ft 8 kts 248°
2026-05-06 07:01 61.16876 -149.97063 160 ft 9 kts 247°
2026-05-06 07:02 61.16851 -149.97189 160 ft 9 kts 248°
2026-05-06 07:02 61.16825 -149.97304 160 ft 8 kts 239°
2026-05-06 07:02 61.16792 -149.97406 160 ft 8 kts 244°
2026-05-06 07:02 61.16785 -149.97482 160 ft 3 kts 270°
2026-05-06 07:03 61.16785 -149.97487 160 ft 0 kts 270°
2026-05-06 07:03 61.16786 -149.97716 160 ft 34 kts 271°
2026-05-06 07:04 61.16783 -149.98604 160 ft 90 kts 269°
2026-05-06 07:04 61.16783 -150.00311 160 ft 144 kts 269°
2026-05-06 07:04 61.16782 -150.02737 163 ft 192 kts 269°
2026-05-06 07:04 61.16781 -150.05684 402 ft 209 kts 266°
2026-05-06 07:05 61.16812 -150.08766 832 ft 219 kts 267°
2026-05-06 07:05 61.16855 -150.11940 1423 ft 224 kts 268°
2026-05-06 07:05 61.16911 -150.15134 2106 ft 223 kts 269°
2026-05-06 07:05 61.16922 -150.18306 2779 ft 222 kts 270°
2026-05-06 07:06 61.16925 -150.21521 3334 ft 226 kts 270°
2026-05-06 07:06 61.16908 -150.24768 3889 ft 229 kts 270°
2026-05-06 07:06 61.16880 -150.28088 4497 ft 229 kts 271°
2026-05-06 07:06 61.16874 -150.31392 4975 ft 235 kts 270°
2026-05-06 07:07 61.16861 -150.34763 5523 ft 236 kts 268°
2026-05-06 07:07 61.16848 -150.38158 6159 ft 234 kts 270°
2026-05-06 07:07 61.16866 -150.41490 6706 ft 234 kts 269°
2026-05-06 07:07 61.16869 -150.44908 7165 ft 238 kts 268°
2026-05-06 07:08 61.16969 -150.48292 7650 ft 240 kts 279°
2026-05-06 07:08 61.17550 -150.51558 8027 ft 247 kts 302°
2026-05-06 07:08 61.18760 -150.54204 8288 ft 258 kts 326°
2026-05-06 07:08 61.20389 -150.55685 8541 ft 263 kts 351°
2026-05-06 07:09 61.22206 -150.55512 8752 ft 266 kts 19°
2026-05-06 07:09 61.23792 -150.53627 9008 ft 264 kts 47°
2026-05-06 07:09 61.24853 -150.50528 9097 ft 270 kts 68°
2026-05-06 07:09 61.25596 -150.46869 9337 ft 274 kts 71°
2026-05-06 07:10 61.26302 -150.43187 9617 ft 278 kts 70°
2026-05-06 07:10 61.27014 -150.39439 9895 ft 282 kts 70°
2026-05-06 07:10 61.27771 -150.35643 10175 ft 286 kts 69°
2026-05-06 07:10 61.28550 -150.31796 10452 ft 291 kts 69°
2026-05-06 07:11 61.29339 -150.27896 10717 ft 298 kts 69°
2026-05-06 07:11 61.30152 -150.23860 10999 ft 305 kts 69°
2026-05-06 07:11 61.30977 -150.19751 11281 ft 311 kts 69°
2026-05-06 07:11 61.31810 -150.15595 11552 ft 317 kts 69°
2026-05-06 07:12 61.32664 -150.11333 11832 ft 322 kts 69°
2026-05-06 07:12 61.33532 -150.06985 12113 ft 328 kts 69°
2026-05-06 07:12 61.34418 -150.02539 12395 ft 333 kts 69°
2026-05-06 07:12 61.35308 -149.98064 12673 ft 339 kts 69°
2026-05-06 07:13 61.36212 -149.93506 12953 ft 344 kts 69°
2026-05-06 07:13 61.37128 -149.88881 13232 ft 348 kts 69°
2026-05-06 07:13 61.38059 -149.84170 13511 ft 353 kts 69°
2026-05-06 07:13 61.38998 -149.79410 13792 ft 357 kts 69°
2026-05-06 07:14 61.39948 -149.74583 14072 ft 361 kts 69°
2026-05-06 07:14 61.40899 -149.69733 14349 ft 365 kts 69°
2026-05-06 07:14 61.41864 -149.64809 14628 ft 369 kts 69°
2026-05-06 07:14 61.42838 -149.59824 14907 ft 372 kts 69°
2026-05-06 07:15 61.43817 -149.54800 15186 ft 376 kts 69°
2026-05-06 07:15 61.44797 -149.49756 15463 ft 379 kts 69°
2026-05-06 07:15 61.45792 -149.44626 15743 ft 381 kts 69°
2026-05-06 07:15 61.46790 -149.39468 16022 ft 384 kts 69°
2026-05-06 07:16 61.47781 -149.34335 16297 ft 386 kts 70°
2026-05-06 07:16 61.48777 -149.29040 16579 ft 389 kts 70°
2026-05-06 07:16 61.49755 -149.23796 16855 ft 392 kts 70°
2026-05-06 07:16 61.50752 -149.18498 17133 ft 394 kts 70°
2026-05-06 07:17 61.51771 -149.13121 17413 ft 397 kts 70°
2026-05-06 07:17 61.52790 -149.07756 17691 ft 399 kts 69°
2026-05-06 07:17 61.53825 -149.02304 17971 ft 402 kts 69°
2026-05-06 07:17 61.54845 -148.96915 18246 ft 405 kts 69°
2026-05-06 07:18 61.55883 -148.91420 18525 ft 408 kts 69°
2026-05-06 07:18 61.56926 -148.85883 18803 ft 410 kts 69°
2026-05-06 07:18 61.57976 -148.80293 19082 ft 413 kts 69°
2026-05-06 07:18 61.59031 -148.74657 19361 ft 416 kts 69°
2026-05-06 07:19 61.60097 -148.68948 19641 ft 420 kts 69°
2026-05-06 07:19 61.61158 -148.63255 19918 ft 423 kts 69°
2026-05-06 07:19 61.62231 -148.57477 20197 ft 426 kts 69°
2026-05-06 07:19 61.63311 -148.51648 20476 ft 430 kts 69°
2026-05-06 07:20 61.64391 -148.45808 20753 ft 433 kts 69°
2026-05-06 07:20 61.65482 -148.39885 21008 ft 437 kts 69°
2026-05-06 07:20 61.66581 -148.33899 21262 ft 442 kts 70°
2026-05-06 07:20 61.67667 -148.27837 21516 ft 446 kts 71°
2026-05-06 07:21 61.68751 -148.21704 21769 ft 450 kts 71°
2026-05-06 07:21 61.69848 -148.15538 22022 ft 454 kts 71°
2026-05-06 07:21 61.70966 -148.09293 22276 ft 459 kts 70°
2026-05-06 07:21 61.72099 -148.02986 22530 ft 463 kts 70°
2026-05-06 07:22 61.73243 -147.96617 22784 ft 468 kts 70°
2026-05-06 07:22 61.74398 -147.90184 23038 ft 472 kts 70°
2026-05-06 07:22 61.75561 -147.83682 23292 ft 477 kts 70°
2026-05-06 07:22 61.76736 -147.77107 23577 ft 480 kts 70°
2026-05-06 07:23 61.77905 -147.70540 23921 ft 482 kts 70°
2026-05-06 07:23 61.79079 -147.63919 24245 ft 485 kts 70°
2026-05-06 07:23 61.80268 -147.57188 24551 ft 487 kts 70°
2026-05-06 07:23 61.81450 -147.50478 24849 ft 489 kts 70°
2026-05-06 07:24 61.82639 -147.43700 25135 ft 492 kts 70°
2026-05-06 07:24 61.83813 -147.36987 25386 ft 495 kts 70°
2026-05-06 07:24 61.85002 -147.30103 25681 ft 496 kts 72°
2026-05-06 07:24 61.86157 -147.23233 25946 ft 499 kts 72°
2026-05-06 07:25 61.87323 -147.16281 26194 ft 501 kts 72°
2026-05-06 07:25 61.88500 -147.09311 26453 ft 504 kts 72°